Location: Équennes
(49.7375°N, 1.9622°E)
Time: 18:46:29
(UTC+00:00)

Cosmos 2278 - Pass Details

Date: 01 October 2023
Orbit: 838 x 853 km, 71.1° (Epoch: 08 December)

Event Time Altitude Azimuth Distance (km) Brightness Sun altitude
Rises 22:34:19 0° 332° (NNW) 3,426 7.7 -41.5°
Reaches altitude 10° 22:38:12 10° 358° (N) 2,491 6.7 -41.7°
Enters shadow 22:40:24 13° 21° (NNE) 2,252 6.3 -41.8°
